KUIPER-00584

导读

KUIPER-00584(NORAD编号69274)是亚马逊柯伊伯(Project Kuiper)低轨互联网星座的组网卫星,隶属于美国亚马逊公司的全球网络覆盖项目。该卫星属于柯伊伯星座后批次发射的组网星,部署于距地约630公里的低地球轨道,轨道倾角约51.9度,轨道周期约97分钟,设计目标是为全球偏远、网络覆盖不足区域提供高带宽、低延迟的互联网接入服务。截至2026年6月,该卫星处于在轨运行状态,是亚马逊推进全球卫星互联网组网的重要组成单元。

Basic Information
目录编号:
69274
目录名称:
KUIPER-00584
国际标识:
2026-118H
轨道中心:
EARTH
卫星名称:
KUIPER-00584
卫星全名:
KUIPER-00584
卫星状态:
在轨 (已飞行14 天)
发射日期:
2026-05-29 UTC
国别 :
美国 (US)
星等 :
--
Orbit Information
数据来源 国际轨道数据
星历时间: 2026-06-12T12:56:01+0800
17小时前
查看轨道信息
半长轴: 6838.528km
偏心率: 0.0011482
轨道倾角: 51.860°
近地点辐角 170.409°
升交点赤经 77.539°
平近点角 189.712°
近地点: 452.539km
远地点: 468.243km
周期: 93.800分钟
每日圈数: 15.351784
Detailed Information
使用方式:
暂无
2D Orbit Map
3D Orbit Map
Orbit Altitude Analysis Chart
Orbit Inclination Analysis Chart
Orbit Comprehensive Analysis Chart
View Comprehensive Chart